ZHONGXING-12

Last updated on Tue Jul 08 2025 00:02:45 GMT+0000 (Coordinated Universal Time)

1 39017U 12067A 25188.58061569 -.00000190 00000+0 00000+0 0 9999 2 39017 0.0460 98.9503 0002832 5.4576 117.8964 1.00271250 46057
UTC large
Height (km)
Speed (km/s)
/
Latitude / Longitude
Inclination (degrees)
Orbital Period (minutes)
Azimuth
Elevation
Range (km)
Doppler Factor

Next 0 passes for location: London (51.5072 / 0.1276)

Sorry there are no passes over London.